Home > Weather > Judenburg > Past weeks

Flag for Austria Past Weather in Judenburg, Styria, Austria — Yesterday and Last 2 Weeks

Now
64 °F

Broken clouds.


Feels Like: 64 °F
Forecast: 58 / 76 °F
Wind: 1 mph from North

Location: Zeltweg

Current Time: Jul 25, 2016 at 8:32:50 AM

Latest Report: Jul 25, 2016 at 7:50 AM


Visibility: 6 mi

Pressure: 30.12 "Hg (27.62 "Hg at 739m altitude)

Humidity: 88%

Dew Point: 61 °F

Location of JudenburgLocation

Past Weather in Judenburg — Graph

°F

Judenburg Temperature Yesterday

Maximum temperature yesterday: 82 °F (at 1:50 PM)
Minimum temperature yesterday: 63 °F (at 6:50 AM)
Average temperature yesterday: 71 °F

High & Low Weather Summary for the Past Weeks

 TemperatureHumidityPressure
High88 °F (Jul 11, 1:20 PM)100% (Jul 14, 5:50 AM)30.24 "Hg (Jul 14, 5:50 AM)
Low43 °F (Jul 15, 5:50 AM)32% (Jul 20, 3:50 PM)29.86 "Hg (Jul 13, 6:50 PM)
Average68 °F64%30.08 "Hg
* Reported Jul 10 6:50 AM — Jul 25 6:50 AM, Judenburg, Weather by CustomWeather, © 2016

Note: Actual official high and low records may vary slightly from our data, if they occured in-between our weather recording intervals... More about our weather records

Advertising

Judenburg Weather History for the Previous 24 Hours

Scroll right to see more
 ConditionsComfort  
Time TempWeatherWind HumidityBarometerVisibility
6:50 AM
Mon, Jul 25
63 °FBroken clouds.3 mph94%30.12 "Hg5 mi
5:50 AM63 °FLight rain. Low clouds.2 mph94%30.15 "Hg5 mi
4:50 AM63 °FLight rain. Mostly cloudy.2 mph100%30.15 "Hg6 mi
10:50 PM
Sun, Jul 24
64 °FPassing clouds.5 mph88%30.15 "Hg9 mi
9:50 PM64 °FPassing clouds.2 mph94%30.12 "Hg9 mi
8:50 PM66 °FBroken clouds.3 mph83%30.12 "Hg9 mi
7:50 PM66 °FPartly sunny.3 mph88%30.09 "Hg9 mi
6:50 PM68 °FThunderstorms. Broken clouds.6 mph88%30.09 "Hg6 mi
5:50 PM75 °FThunderstorms. Broken clouds.8 mph61%30.09 "Hg5 mi
4:50 PM77 °FPartly sunny.9 mph61%30.07 "Hg19 mi
3:50 PM81 °FScattered clouds.10 mph51%30.07 "Hg19 mi
2:50 PM82 °FScattered clouds.6 mph45%30.09 "Hg19 mi
1:50 PM82 °FScattered clouds.5 mph40%30.09 "Hg19 mi
12:50 PM81 °FScattered clouds.3 mph45%30.09 "Hg19 mi
11:50 AM77 °FPassing clouds.3 mph54%30.09 "Hg19 mi
10:50 AM75 °FPassing clouds.3 mph57%30.12 "Hg19 mi
9:50 AM72 °FPassing clouds.3 mph69%30.12 "Hg12 mi
8:50 AM70 °FPassing clouds.1 mph78%30.12 "Hg12 mi
Weather by CustomWeather, © 2016

See weather overviewHow to use our weather pages